TimeAKST,TemperatureF,Dew PointF,Humidity,Sea Level PressureIn,VisibilityMPH,Wind Direction,Wind SpeedMPH,Gust SpeedMPH,PrecipitationIn,Events,Conditions,WindDirDegrees,DateUTC
12:53 AM,-29.9,-9999,N/A,29.88,10.0,Calm,Calm,-,N/A,,Clear,0,2012-12-05 09:53:00
1:53 AM,-31.0,-9999,N/A,29.88,10.0,Calm,Calm,-,N/A,,Clear,0,2012-12-05 10:53:00
3:53 AM,-32.1,-9999,N/A,29.88,10.0,Calm,Calm,-,N/A,,Clear,0,2012-12-05 12:53:00
5:53 AM,-32.1,-9999,N/A,29.88,10.0,Calm,Calm,-,N/A,,Scattered Clouds,0,2012-12-05 14:53:00
6:53 AM,-32.1,-9999,N/A,29.88,10.0,Calm,Calm,-,N/A,,Clear,0,2012-12-05 15:53:00
7:53 AM,-32.1,-9999,N/A,29.88,10.0,Calm,Calm,-,N/A,,Clear,0,2012-12-05 16:53:00
8:53 AM,-33.0,-9999,N/A,29.89,10.0,Calm,Calm,-,N/A,,Partly Cloudy,0,2012-12-05 17:53:00
9:53 AM,-29.0,-35.0,73,29.90,10.0,Calm,Calm,-,N/A,,Mostly Cloudy,0,2012-12-05 18:53:00
10:53 AM,-25.1,-31.0,74,29.89,10.0,Calm,Calm,-,N/A,,Mostly Cloudy,0,2012-12-05 19:53:00
11:53 AM,-23.1,-29.0,74,29.89,10.0,Calm,Calm,-,N/A,,Overcast,0,2012-12-05 20:53:00
12:53 PM,-20.9,-27.0,73,29.89,10.0,Calm,Calm,-,N/A,,Mostly Cloudy,0,2012-12-05 21:53:00
1:53 PM,-20.0,-26.0,74,29.90,10.0,Calm,Calm,-,N/A,,Scattered Clouds,0,2012-12-05 22:53:00
2:53 PM,-20.0,-26.0,74,29.90,10.0,Calm,Calm,-,N/A,,Scattered Clouds,0,2012-12-05 23:53:00
3:53 PM,-23.1,-29.0,74,29.90,10.0,Calm,Calm,-,N/A,,Scattered Clouds,0,2012-12-06 00:53:00
4:53 PM,-24.0,-31.0,70,29.89,10.0,Calm,Calm,-,N/A,,Clear,0,2012-12-06 01:53:00
5:53 PM,-26.0,-32.1,73,29.89,10.0,Calm,Calm,-,N/A,,Mostly Cloudy,0,2012-12-06 02:53:00
6:07 PM,-25.6,-32.8,69,29.83,8.0,Calm,Calm,-,N/A,,Mostly Cloudy,0,2012-12-06 03:07:00
6:32 PM,-25.6,-32.8,69,29.83,8.0,Calm,Calm,-,N/A,,Overcast,0,2012-12-06 03:32:00
6:53 PM,-25.1,-31.0,74,29.88,8.0,Calm,Calm,-,N/A,,Overcast,0,2012-12-06 03:53:00
7:53 PM,-25.1,-31.0,74,29.89,10.0,Calm,Calm,-,N/A,,Overcast,0,2012-12-06 04:53:00
8:53 PM,-26.0,-33.0,69,29.89,10.0,Calm,Calm,-,N/A,,Clear,0,2012-12-06 05:53:00
9:53 PM,-27.0,-34.1,69,29.90,9.0,Calm,Calm,-,N/A,,Clear,0,2012-12-06 06:53:00
10:53 PM,-29.0,-35.0,73,29.91,5.0,Calm,Calm,-,N/A,,Haze,0,2012-12-06 07:53:00
11:53 PM,-29.9,-9999,N/A,29.92,10.0,Calm,Calm,-,N/A,,Clear,0,2012-12-06 08:53:00